Utilitzem cookies pròpies i de tercers per millorar la seva experiència i els nostres serveis,analitzant la navegació en el nostre Lloc Web. Si continua navegant, vostè està acceptant el seu ús. Podeu obtenir més informació a la nostra Política de cookies. OK

En viu: Half 24 Km

Half 24 Km

COLL DE NAFRÉ - Intermig


1
Pendents

61
Han passat

Homes

# - Posició P.C. - Participant Temps Dorsal

1 - 1 - JOAN ROSICH LLORACH 02:01:48 118

2 - 2 - ISAAC BADIA MOLIST 02:04:02 129

3 - 3 - ANTONIO MARTINEZ SANCHEZ 02:05:58 102

4 - 4 - XAVIER SáNCHEZ VICENTE 02:07:05 123

5 - 5 - ORIOL DURAN SAñE 02:07:34 105

6 - 6 - ISMA MOLINA ESCRIBANO 02:08:45 119

7 - 7 - JORDI PALAUDELMÀS I CARLES 02:13:54 140

8 - 8 - ALBERTO GARCIA BONILLA 02:14:09 177

9 - 9 - ROBERTO CARLOS MARIN 02:15:28 182

10 - 10 - MANUEL ALCAZAR SALMERON 02:16:53 130

11 - 11 - DAVID COSTA ESTANYOL 02:17:29 114

12 - 12 - JOAN CARLES LIEBANAS RUIZ 02:19:29 101

13 - 14 - THIJS VANDEWYNCKEL 02:24:13 132

14 - 15 - JAUME ESTARLICH GIMENEZ 02:26:46 106

15 - 16 - MARC FONT 02:27:44 139

16 - 17 - CARLES PACAREU FRANCES 02:27:53 181

17 - 18 - MANEL GISBERT CLOTA 02:28:28 104

18 - 19 - ALEX PLA EXPOSITO 02:28:36 107

19 - 21 - ORIOL GARRETA GORDI 02:29:04 113

20 - 22 - JOAN CABANA 02:29:46 128

21 - 23 - DAVID RUIZ CASTRO 02:30:29 175

22 - 24 - MARCEL PINILLA PEREZ 02:33:52 138

23 - 25 - DANIEL SERRANO AGUILAR 02:33:58 125

24 - 26 - QUIM FONT SANCHO 02:37:46 131

25 - 27 - JOAQUIM SANGENIS VATHJE 02:40:24 144

26 - 29 - ESTEVE HERREROS COMELLAS 02:41:22 115

27 - 30 - PEP SERRA BAYES 02:42:39 174

28 - 32 - THIBAUD VINCENDON . 02:44:26 179

29 - 33 - JOSé CABALLERO BOU 02:45:48 147

30 - 34 - JOSE MARTíN INFANTE 02:46:13 112

31 - 35 - OSCAR PARDO SANCHEZ 02:47:01 155

32 - 36 - OSCAR CHILOECHES MARESMA 02:47:10 154

33 - 37 - JORDI PUJOLAR PANé 02:47:13 124

34 - 38 - XAVIER GRAELLS MONTE 02:49:18 176

35 - 39 - JORDI ZABALETA GASCO 02:49:24 166

36 - 40 - JUAN CARLOS CUESTA 02:49:32 171

37 - 42 - DANI SANCHEZ SANTOLAYA 02:55:49 157

38 - 43 - ANTONIO PARRA MORA 02:57:08 126

39 - 44 - PAULO GALDINO 03:02:41 137

40 - 45 - ALBERT SALMORAL MARTI 03:02:42 122

41 - 47 - RAFAEL ANGUITA VILLAPLANA 03:06:34 173

42 - 49 - MARCOS ANDRES TRENADO 03:09:25 178

43 - 50 - SERGI DEL BARRIO 03:09:27 180

44 - 51 - CHUS SIERRA SANCHEZ 03:10:04 111

45 - 53 - JUAN CARLOS GINER GARCIA 03:17:09 152

46 - 54 - ALBERT SAUBI ROCASALVA 03:17:12 141

47 - 55 - JOAN BOSCH MATAMALA 03:17:13 142

48 - 56 - EDUARD CASTANY CODINA 03:17:14 172

49 - 57 - LLUíS VICENS VIDAL 03:17:19 134

50 - 59 - DAVID ADROVER IGLESIAS 03:22:58 135

51 - 61 - JORDI VALLADARES QUINTA 03:59:49 150

Dones

# - Posició P.C. - Participant Temps Dorsal

1 - 13 - EMMA BONNEMORT 02:21:17 116

2 - 20 - MARIA SANTAMARIA FARRé 02:28:49 120

3 - 28 - DINA FRIAS GARRET 02:40:36 145

4 - 31 - RAQUEL BAEZ FLECHA 02:42:42 109

5 - 41 - MONICA SILES MIRALLES 02:55:39 136

6 - 46 - MONTSE PERDIGUERO FABRé 03:04:48 108

7 - 48 - PILAR LUNARO 03:08:44 110

8 - 52 - GLòRIA RIFà 03:13:43 103

9 - 58 - SíLVIA SAURA SANJAUME 03:17:20 133

10 - 60 - MARIA GABRIELA CAPUTO 03:40:36 146

Publicitat